Weather History for KOCQ - March, 2013

Change the Weather History Date:

Friday, March 15, 2013

  Actual Average Record
Temperature  
Mean Temperature 26 °F -  
Max Temperature 32 °F 40 °F 52 °F (2015)
Min Temperature 19 °F 19 °F 10 °F (2014)
Degree Days  
Heating Degree Days 40    
Moisture  
Dew Point 22 °F    
Average Humidity 76    
Maximum Humidity 92    
Minimum Humidity 60    
Precipitation  
Precipitation 0.00 in - - ()
Sea Level Pressure  
Sea Level Pressure 29.93 in    
Wind  
Wind Speed 8 mph (NE)    
Max Wind Speed 13 mph    
Max Gust Speed 21 mph    
Visibility 9 miles    
Events      
Averages and records for this station are not official NWS values.
T = Trace of Precipitation, MM = Missing Value Source: NWS Daily Summary

Daily Weather History Graph

Daily Weather History Graph

Search for Another Location

Airport or City:

Trip Planner

Search our weather history database for the weather conditions in past years. The results will help you decide how hot, cold, wet, or windy it might be!

Date:

Astronomy

Mar. 15, 2013 Rise Set
Actual Time 7:03 AM CDT 6:58 PM CDT
Civil Twilight 6:34 AM CDT 7:27 PM CDT
Nautical Twilight 6:00 AM CDT 8:01 PM CDT
Astronomical Twilight 5:25 AM CDT 8:36 PM CDT
Moon 8:42 AM CDT (3/15) 11:24 PM CDT (3/15)
Length of Visible Light 12h 52m
Length of Day
11h 54m
Waxing Crescent, 15% of the Moon is Illuminated
Mar 15
Waxing Crescent
Mar 19
First Quarter
Mar 27
Full
Apr 2
Last Quarter
Apr 10
New

Hourly Weather History & Observations

Time (CDT) Temp. Windchill Dew Point Humidity Pressure Visibility Wind Dir Wind Speed Gust Speed Precip Events Conditions
12:15 AM 29.7 °F 22.8 °F 24.4 °F 81% 29.98 in 10.0 mi WSW 6.9 mph - N/A   Scattered Clouds
12:35 AM 29.3 °F 23.2 °F 24.3 °F 81% 29.97 in 10.0 mi WSW 5.8 mph - N/A   Scattered Clouds
12:55 AM 28.9 °F 21.9 °F 24.3 °F 83% 29.97 in 10.0 mi WSW 6.9 mph - N/A   Clear
1:15 AM 29.1 °F 22.1 °F 24.4 °F 83% 29.96 in 10.0 mi SW 6.9 mph - N/A   Mostly Cloudy
1:35 AM 30.0 °F 22.4 °F 25.0 °F 82% 29.95 in 10.0 mi WSW 8.1 mph - N/A   Overcast
1:55 AM 30.6 °F 22.4 °F 25.3 °F 81% 29.95 in 10.0 mi WSW 9.2 mph - N/A   Overcast
2:15 AM 31.1 °F 23.1 °F 25.7 °F 80% 29.94 in 10.0 mi WSW 9.2 mph - N/A   Overcast
2:35 AM 31.5 °F 23.5 °F 25.7 °F 79% 29.94 in 10.0 mi WSW 9.2 mph - N/A   Overcast
2:55 AM 31.5 °F 24.9 °F 25.7 °F 79% 29.93 in 10.0 mi WSW 6.9 mph - N/A   Overcast
3:15 AM 31.5 °F 25.8 °F 25.7 °F 79% 29.92 in 10.0 mi WSW 5.8 mph - N/A   Overcast
3:35 AM 31.6 °F 25.1 °F 25.9 °F 79% 29.92 in 10.0 mi West 6.9 mph - N/A   Overcast
3:55 AM 31.6 °F 25.1 °F 26.1 °F 80% 29.91 in 10.0 mi West 6.9 mph - N/A   Overcast
4:15 AM 31.6 °F 24.4 °F 25.9 °F 79% 29.90 in 10.0 mi WSW 8.1 mph - N/A   Overcast
4:35 AM 31.6 °F 25.1 °F 26.1 °F 80% 29.89 in 10.0 mi WSW 6.9 mph - N/A   Overcast
4:55 AM 31.6 °F 25.1 °F 26.1 °F 80% 29.89 in 10.0 mi West 6.9 mph - N/A   Overcast
5:15 AM 31.6 °F 24.4 °F 26.2 °F 80% 29.89 in 10.0 mi West 8.1 mph - N/A   Overcast
5:35 AM 31.6 °F 24.4 °F 26.2 °F 80% 29.90 in 10.0 mi West 8.1 mph - N/A   Overcast
5:55 AM 31.6 °F 23.7 °F 26.2 °F 80% 29.90 in 10.0 mi West 9.2 mph - N/A   Overcast
6:15 AM 31.6 °F 24.4 °F 26.2 °F 80% 29.90 in 10.0 mi West 8.1 mph - N/A   Overcast
6:35 AM 31.5 °F 24.9 °F 26.4 °F 82% 29.91 in 10.0 mi West 6.9 mph - N/A   Overcast
6:55 AM 31.6 °F 25.1 °F 26.4 °F 81% 29.90 in 10.0 mi West 6.9 mph - N/A   Overcast
7:15 AM 31.6 °F 27.0 °F 26.2 °F 80% 29.90 in 10.0 mi WNW 4.6 mph - N/A   Overcast
7:35 AM 31.6 °F 28.3 °F 26.1 °F 80% 29.91 in 10.0 mi WNW 3.5 mph - N/A   Overcast
7:55 AM 31.6 °F 28.3 °F 26.2 °F 80% 29.91 in 10.0 mi WNW 3.5 mph - N/A   Overcast
8:15 AM 32.0 °F 28.7 °F 26.2 °F 79% 29.92 in 10.0 mi NW 3.5 mph - N/A   Overcast
8:35 AM 32.0 °F 28.7 °F 26.4 °F 80% 29.92 in 7.0 mi NW 3.5 mph - N/A   Overcast
8:55 AM 32.0 °F 26.4 °F 27.5 °F 83% 29.93 in 2.5 mi NNW 5.8 mph - N/A   Overcast
9:15 AM 31.6 °F 27.0 °F 28.6 °F 88% 29.93 in 2.5 mi North 4.6 mph - N/A   Overcast
9:35 AM 30.9 °F 25.2 °F 28.9 °F 92% 29.93 in 1.2 mi ENE 5.8 mph - N/A   Overcast
9:55 AM 30.6 °F 23.8 °F 28.0 °F 90% 29.93 in 2.5 mi ENE 6.9 mph - N/A   Overcast
10:55 AM 31.6 °F 24.4 °F 27.1 °F 83% 29.93 in 10.0 mi East 8.1 mph - N/A   Overcast
11:15 AM 31.1 °F 24.5 °F 26.6 °F 83% 29.93 in 10.0 mi East 6.9 mph - N/A   Overcast
11:35 AM 31.1 °F 23.7 °F 26.1 °F 82% 29.93 in 10.0 mi ENE 8.1 mph - N/A   Overcast
11:55 AM 31.3 °F 23.9 °F 23.9 °F 74% 29.94 in 10.0 mi East 8.1 mph - N/A   Overcast
12:15 PM 31.1 °F 24.5 °F 23.7 °F 74% 29.94 in 10.0 mi ENE 6.9 mph - N/A   Overcast
12:35 PM 31.8 °F 26.2 °F 23.7 °F 72% 29.94 in 10.0 mi East 5.8 mph - N/A   Overcast
12:55 PM 32.4 °F 26.9 °F 23.9 °F 71% 29.94 in 10.0 mi East 5.8 mph - N/A   Overcast
1:15 PM 32.0 °F 24.2 °F 22.8 °F 69% 29.94 in 10.0 mi East 9.2 mph - N/A   Overcast
1:35 PM 32.0 °F 24.8 °F 22.3 °F 67% 29.94 in 10.0 mi ENE 8.1 mph - N/A   Overcast
1:55 PM 31.8 °F 24.6 °F 21.4 °F 65% 29.93 in 10.0 mi East 8.1 mph - N/A   Overcast
2:15 PM 31.1 °F 23.1 °F 21.6 °F 68% 29.93 in 10.0 mi East 9.2 mph - N/A   Mostly Cloudy
2:35 PM 31.6 °F 23.7 °F 21.4 °F 66% 29.94 in 10.0 mi East 9.2 mph - N/A   Scattered Clouds
2:55 PM 31.8 °F 23.9 °F 21.0 °F 64% 29.93 in 10.0 mi East 9.2 mph - N/A   Scattered Clouds
3:15 PM 30.9 °F 21.7 °F 19.6 °F 63% 29.92 in 10.0 mi East 11.5 mph 16.1 mph N/A   Scattered Clouds
3:35 PM 30.4 °F 21.5 °F 19.8 °F 65% 29.92 in 10.0 mi ENE 10.4 mph - N/A   Scattered Clouds
3:55 PM 30.2 °F 21.9 °F 19.2 °F 64% 29.91 in 10.0 mi ENE 9.2 mph - N/A   Scattered Clouds
4:15 PM 30.2 °F 20.8 °F 19.2 °F 64% 29.91 in 10.0 mi East 11.5 mph 17.3 mph N/A   Scattered Clouds
4:35 PM 29.5 °F 21.1 °F 19.0 °F 65% 29.92 in 10.0 mi ENE 9.2 mph 17.3 mph N/A   Scattered Clouds
4:55 PM 29.3 °F 21.5 °F 19.2 °F 66% 29.92 in 10.0 mi ENE 8.1 mph - N/A   Mostly Cloudy
5:15 PM 28.9 °F 19.8 °F 17.6 °F 63% 29.91 in 10.0 mi ENE 10.4 mph 17.3 mph N/A   Overcast
5:35 PM 28.4 °F 18.5 °F 16.9 °F 62% 29.92 in 10.0 mi ENE 11.5 mph 19.6 mph N/A   Overcast
5:55 PM 27.5 °F 18.0 °F 16.9 °F 64% 29.92 in 10.0 mi ENE 10.4 mph 20.7 mph N/A   Overcast
6:15 PM 27.1 °F 16.9 °F 16.7 °F 65% 29.92 in 10.0 mi ENE 11.5 mph 20.7 mph N/A   Overcast
6:35 PM 26.8 °F 17.7 °F 14.5 °F 60% 29.92 in 10.0 mi ENE 9.2 mph 18.4 mph N/A   Overcast
6:55 PM 26.6 °F 16.8 °F 15.3 °F 62% 29.92 in 10.0 mi ENE 10.4 mph 17.3 mph N/A   Overcast
7:15 PM 26.2 °F 16.4 °F 14.2 °F 60% 29.92 in 10.0 mi ENE 10.4 mph 17.3 mph N/A   Overcast
7:35 PM 26.1 °F 15.6 °F 15.6 °F 65% 29.93 in 10.0 mi ENE 11.5 mph 18.4 mph N/A   Overcast
7:55 PM 25.7 °F 17.1 °F 16.0 °F 67% 29.93 in 10.0 mi ENE 8.1 mph 18.4 mph N/A   Overcast
8:15 PM 25.2 °F 15.1 °F 15.3 °F 66% 29.93 in 10.0 mi ENE 10.4 mph 18.4 mph N/A   Overcast
8:35 PM 24.8 °F 13.4 °F 14.7 °F 66% 29.93 in 10.0 mi ENE 12.7 mph 18.4 mph N/A   Overcast
8:55 PM 23.9 °F 14.2 °F 14.5 °F 67% 29.94 in 10.0 mi ENE 9.2 mph 18.4 mph N/A   Overcast
9:15 PM 23.5 °F 13.0 °F 14.9 °F 70% 29.95 in 10.0 mi NE 10.4 mph - N/A   Overcast
9:35 PM 22.5 °F 11.1 °F 16.3 °F 77% 29.96 in 7.0 mi NE 11.5 mph 20.7 mph N/A   Overcast
9:55 PM 21.6 °F 11.3 °F 17.6 °F 85% 29.97 in 3.0 mi NE 9.2 mph 17.3 mph N/A   Overcast
10:15 PM 20.7 °F 9.5 °F 17.4 °F 87% 29.97 in 1.5 mi NE 10.4 mph 18.4 mph N/A   Overcast
10:35 PM 20.1 °F 9.5 °F 17.4 °F 89% 29.96 in 1.2 mi NE 9.2 mph 16.1 mph N/A   Overcast
10:55 PM 19.9 °F 8.6 °F 17.6 °F 91% 29.96 in 1.2 mi NE 10.4 mph - N/A   Overcast
11:15 PM 19.6 °F 10.6 °F 17.2 °F 91% 29.95 in 1.5 mi NE 6.9 mph - N/A   Overcast
11:35 PM 19.4 °F 7.2 °F 16.7 °F 89% 29.95 in 1.8 mi NE 11.5 mph 19.6 mph N/A   Overcast
11:55 PM 19.2 °F 8.4 °F 16.3 °F 89% 29.96 in 2.5 mi NE 9.2 mph 16.1 mph N/A   Overcast